Time,TemperatureF,DewpointF,PressureIn,WindDirection,WindDirectionDegrees,WindSpeedMPH,WindSpeedGustMPH,Humidity,HourlyPrecipIn,Conditions,Clouds,dailyrainin,SoftwareType,DateUTC
2013-07-29 00:04:00,59.9,58.0,29.98,West,277,3.0,3.0,92,0.00,,,0.00,weatherlink.com 1.10,2013-07-29 04:04:00,
2013-07-29 00:19:00,59.8,58.0,29.98,West,277,0.0,3.0,93,0.00,,,0.00,weatherlink.com 1.10,2013-07-29 04:19:00,
2013-07-29 00:34:00,59.5,58.0,29.98,West,263,2.0,3.0,93,0.00,,,0.00,weatherlink.com 1.10,2013-07-29 04:34:00,
2013-07-29 00:49:00,59.4,58.0,29.98,West,269,1.0,3.0,94,0.00,,,0.00,weatherlink.com 1.10,2013-07-29 04:49:00,
2013-07-29 01:04:00,59.2,58.0,29.98,WNW,282,0.0,3.0,95,0.00,,,0.00,weatherlink.com 1.10,2013-07-29 05:04:00,
2013-07-29 01:20:00,58.9,58.0,29.98,West,277,1.0,4.0,95,0.00,,,0.00,weatherlink.com 1.10,2013-07-29 05:20:00,
2013-07-29 01:35:00,58.5,57.0,29.97,WNW,296,3.0,5.0,96,0.00,,,0.00,weatherlink.com 1.10,2013-07-29 05:35:00,
2013-07-29 01:50:00,58.2,57.0,29.97,WNW,286,2.0,4.0,97,0.00,,,0.00,weatherlink.com 1.10,2013-07-29 05:50:00,
2013-07-29 02:05:00,57.9,57.0,29.97,NW,311,3.0,4.0,97,0.00,,,0.00,weatherlink.com 1.10,2013-07-29 06:05:00,
2013-07-29 02:20:00,57.5,57.0,29.97,WNW,292,2.0,4.0,97,0.00,,,0.00,weatherlink.com 1.10,2013-07-29 06:20:00,
2013-07-29 02:35:00,57.4,57.0,29.97,WNW,292,2.0,3.0,97,0.00,,,0.00,weatherlink.com 1.10,2013-07-29 06:35:00,
2013-07-29 02:50:00,57.3,57.0,29.97,WNW,294,2.0,3.0,97,0.00,,,0.00,weatherlink.com 1.10,2013-07-29 06:50:00,
2013-07-29 03:05:00,57.2,56.0,29.97,WNW,294,1.0,5.0,97,0.00,,,0.00,weatherlink.com 1.10,2013-07-29 07:05:00,
2013-07-29 04:19:00,56.5,56.0,29.98,WNW,298,2.0,4.0,97,0.00,,,0.00,weatherlink.com 1.10,2013-07-29 08:19:00,
2013-07-29 04:35:00,56.4,56.0,29.98,NW,309,2.0,4.0,97,0.00,,,0.00,weatherlink.com 1.10,2013-07-29 08:35:00,
2013-07-29 04:50:00,56.2,55.0,29.99,WNW,294,1.0,4.0,97,0.00,,,0.00,weatherlink.com 1.10,2013-07-29 08:50:00,
2013-07-29 05:05:00,56.1,56.0,29.99,WNW,294,2.0,3.0,98,0.00,,,0.00,weatherlink.com 1.10,2013-07-29 09:05:00,
2013-07-29 05:20:00,56.0,56.0,29.99,WNW,294,2.0,2.0,98,0.00,,,0.00,weatherlink.com 1.10,2013-07-29 09:20:00,
2013-07-29 06:00:00,55.5,55.0,30.01,WNW,298,2.0,4.0,98,0.00,,,0.00,weatherlink.com 1.10,2013-07-29 10:00:00,
2013-07-29 06:05:00,55.3,55.0,30.01,WNW,298,2.0,4.0,98,0.00,,,0.00,weatherlink.com 1.10,2013-07-29 10:05:00,
2013-07-29 06:20:00,55.1,55.0,30.01,WNW,298,1.0,2.0,98,0.00,,,0.00,weatherlink.com 1.10,2013-07-29 10:20:00,
2013-07-29 06:50:00,55.0,55.0,30.02,WNW,298,3.0,4.0,99,0.01,,,0.01,weatherlink.com 1.10,2013-07-29 10:50:00,
2013-07-29 07:05:00,54.5,54.0,30.02,NW,304,3.0,4.0,98,0.01,,,0.01,weatherlink.com 1.10,2013-07-29 11:05:00,
2013-07-29 07:20:00,55.0,54.0,30.02,WNW,300,1.0,3.0,97,0.01,,,0.01,weatherlink.com 1.10,2013-07-29 11:20:00,
2013-07-29 07:35:00,55.7,54.0,30.03,WNW,300,1.0,3.0,95,0.00,,,0.01,weatherlink.com 1.10,2013-07-29 11:35:00,
2013-07-29 07:50:00,55.8,54.0,30.03,NW,316,2.0,3.0,94,0.00,,,0.01,weatherlink.com 1.10,2013-07-29 11:50:00,
2013-07-29 08:05:00,55.8,53.0,30.03,NNW,333,0.0,1.0,91,0.00,,,0.01,weatherlink.com 1.10,2013-07-29 12:05:00,
2013-07-29 08:20:00,55.9,54.0,30.04,NNW,333,0.0,2.0,92,0.00,,,0.01,weatherlink.com 1.10,2013-07-29 12:20:00,
2013-07-29 08:50:00,57.3,55.0,30.04,WNW,300,1.0,3.0,93,0.00,,,0.01,weatherlink.com 1.10,2013-07-29 12:50:00,
2013-07-29 09:05:00,58.5,56.0,30.05,NNW,348,0.0,4.0,90,0.00,,,0.01,weatherlink.com 1.10,2013-07-29 13:05:00,
2013-07-29 09:20:00,59.8,56.0,30.05,North,355,1.0,3.0,87,0.00,,,0.01,weatherlink.com 1.10,2013-07-29 13:20:00,
2013-07-29 09:35:00,61.4,59.0,30.05,North,355,0.0,1.0,91,0.00,,,0.01,weatherlink.com 1.10,2013-07-29 13:35:00,
2013-07-29 09:50:00,61.8,59.0,30.06,NE,40,0.0,1.0,91,0.00,,,0.01,weatherlink.com 1.10,2013-07-29 13:50:00,
2013-07-29 10:05:00,62.2,60.0,30.05,ESE,109,0.0,1.0,91,0.00,,,0.01,weatherlink.com 1.10,2013-07-29 14:05:00,
2013-07-29 10:35:00,67.5,62.0,30.06,SSW,192,0.0,2.0,81,0.00,,,0.01,weatherlink.com 1.10,2013-07-29 14:35:00,
2013-07-29 11:20:00,67.9,59.0,30.07,WNW,291,2.0,3.0,74,0.00,,,0.01,weatherlink.com 1.10,2013-07-29 15:20:00,
2013-07-29 11:36:00,66.9,60.0,30.07,WSW,255,2.0,3.0,78,0.00,,,0.01,weatherlink.com 1.10,2013-07-29 15:36:00,
2013-07-29 11:51:00,67.9,61.0,30.07,WSW,240,1.0,3.0,79,0.00,,,0.01,weatherlink.com 1.10,2013-07-29 15:51:00,
2013-07-29 12:06:00,68.1,62.0,30.07,WSW,244,1.0,6.0,81,0.00,,,0.01,weatherlink.com 1.10,2013-07-29 16:06:00,
2013-07-29 12:21:00,67.9,59.0,30.07,WSW,246,2.0,6.0,72,0.00,,,0.01,weatherlink.com 1.10,2013-07-29 16:21:00,
2013-07-29 12:36:00,68.8,59.0,30.07,NNW,343,1.0,4.0,72,0.00,,,0.01,weatherlink.com 1.10,2013-07-29 16:36:00,
2013-07-29 12:51:00,69.3,58.0,30.07,West,277,0.0,5.0,68,0.00,,,0.01,weatherlink.com 1.10,2013-07-29 16:51:00,
2013-07-29 13:22:00,70.4,59.0,30.08,West,274,2.0,4.0,68,0.00,,,0.01,weatherlink.com 1.10,2013-07-29 17:22:00,
2013-07-29 13:36:00,69.5,59.0,30.08,West,277,3.0,5.0,69,0.00,,,0.01,weatherlink.com 1.10,2013-07-29 17:36:00,
2013-07-29 13:51:00,68.9,58.0,30.08,WNW,288,2.0,7.0,68,0.00,,,0.01,weatherlink.com 1.10,2013-07-29 17:51:00,
2013-07-29 14:06:00,70.1,59.0,30.08,WSW,237,2.0,5.0,67,0.00,,,0.01,weatherlink.com 1.10,2013-07-29 18:06:00,
2013-07-29 14:21:00,70.3,59.0,30.07,West,275,3.0,6.0,67,0.00,,,0.01,weatherlink.com 1.10,2013-07-29 18:21:00,
2013-07-29 14:36:00,70.4,58.0,30.07,West,265,3.0,5.0,65,0.00,,,0.01,weatherlink.com 1.10,2013-07-29 18:36:00,
2013-07-29 14:51:00,70.6,60.0,30.07,West,280,2.0,6.0,68,0.00,,,0.01,weatherlink.com 1.10,2013-07-29 18:51:00,
2013-07-29 15:06:00,70.8,60.0,30.07,West,261,1.0,5.0,68,0.00,,,0.01,weatherlink.com 1.10,2013-07-29 19:06:00,
2013-07-29 15:51:00,72.1,61.0,30.06,West,260,1.0,5.0,69,0.00,,,0.01,weatherlink.com 1.10,2013-07-29 19:51:00,
2013-07-29 16:21:00,72.8,61.0,30.05,WSW,245,4.0,5.0,67,0.00,,,0.01,weatherlink.com 1.10,2013-07-29 20:21:00,
2013-07-29 16:36:00,72.6,61.0,30.05,West,271,4.0,6.0,68,0.00,,,0.01,weatherlink.com 1.10,2013-07-29 20:36:00,
2013-07-29 16:51:00,72.1,62.0,30.05,WSW,257,4.0,6.0,70,0.00,,,0.01,weatherlink.com 1.10,2013-07-29 20:51:00,
2013-07-29 17:36:00,71.3,60.0,30.06,West,271,2.0,5.0,68,0.00,,,0.01,weatherlink.com 1.10,2013-07-29 21:36:00,
2013-07-29 18:06:00,70.3,61.0,30.06,WSW,257,4.0,5.0,72,0.00,,,0.01,weatherlink.com 1.10,2013-07-29 22:06:00,
2013-07-29 18:36:00,69.7,61.0,30.06,West,263,1.0,5.0,74,0.00,,,0.01,weatherlink.com 1.10,2013-07-29 22:36:00,
2013-07-29 19:06:00,65.8,59.0,30.07,WSW,257,2.0,6.0,79,0.00,,,0.01,weatherlink.com 1.10,2013-07-29 23:06:00,
2013-07-29 19:21:00,64.2,58.0,30.08,West,267,3.0,5.0,81,0.00,,,0.01,weatherlink.com 1.10,2013-07-29 23:21:00,
2013-07-29 19:36:00,63.4,58.0,30.08,West,280,3.0,6.0,81,0.00,,,0.01,weatherlink.com 1.10,2013-07-29 23:36:00,
2013-07-29 19:51:00,63.0,57.0,30.09,North,355,3.0,7.0,81,0.00,,,0.01,weatherlink.com 1.10,2013-07-29 23:51:00,
2013-07-29 20:06:00,62.9,57.0,30.09,West,273,4.0,7.0,82,0.00,,,0.01,weatherlink.com 1.10,2013-07-30 00:06:00,
2013-07-29 20:21:00,62.1,56.0,30.09,WNW,295,3.0,8.0,81,0.00,,,0.01,weatherlink.com 1.10,2013-07-30 00:21:00,
2013-07-29 20:51:00,60.9,56.0,30.09,West,279,2.0,4.0,83,0.00,,,0.01,weatherlink.com 1.10,2013-07-30 00:51:00,
2013-07-29 21:06:00,60.6,56.0,30.11,WNW,293,2.0,4.0,85,0.00,,,0.01,weatherlink.com 1.10,2013-07-30 01:06:00,
2013-07-29 21:21:00,60.2,55.0,30.11,NW,318,4.0,6.0,84,0.00,,,0.01,weatherlink.com 1.10,2013-07-30 01:21:00,
2013-07-29 21:51:00,60.1,54.0,30.13,WNW,295,3.0,6.0,79,0.00,,,0.01,weatherlink.com 1.10,2013-07-30 01:51:00,
2013-07-29 22:06:00,60.2,53.0,30.14,WNW,286,4.0,7.0,77,0.00,,,0.01,weatherlink.com 1.10,2013-07-30 02:06:00,
2013-07-29 22:37:00,60.3,52.0,30.15,WNW,291,3.0,5.0,74,0.00,,,0.01,weatherlink.com 1.10,2013-07-30 02:37:00,
2013-07-29 22:51:00,60.1,51.0,30.15,NNW,338,2.0,4.0,72,0.00,,,0.01,weatherlink.com 1.10,2013-07-30 02:51:00,
2013-07-29 23:37:00,60.2,51.0,30.15,NNE,17,0.0,1.0,71,0.00,,,0.01,weatherlink.com 1.10,2013-07-30 03:37:00,
2013-07-29 23:52:00,60.3,51.0,30.15,NNE,17,0.0,0.0,72,0.00,,,0.01,weatherlink.com 1.10,2013-07-30 03:52:00,